Regional Weather Roundup
Issued by NWS Mt. Holly, NJ

Home | Current Version | Previous Version | Text Only | Print | Product List | Glossary On
Versions: 1 2 3 4 5 6 7 8 9 10 11 12 13 14 15 16 17 18 19 20 21 22 23 24 25 26 27 28 29 30 31 32 33 34 35 36 37 38 39 40 41 42 43 44 45 46 47 48 49 50
000
ASUS41 KPHI 200510
RWRPHI

REGIONAL WEATHER ROUNDUP
NATIONAL WEATHER SERVICE MOUNT HOLLY NJ
100 AM EDT WED AUG 20 2014

NOTE:  "FAIR" INDICATES FEW OR NO CLOUDS BELOW 12,000 FEET WITH NO
SIGNIFICANT WEATHER AND/OR OBSTRUCTIONS TO VISIBILITY.

 * = STATION DOES NOT REPORT PRECIPITATION (E.G. RAIN, SNOW, ETC.)
        OR FOG.

NJZ015>026-200600-
SOUTHERN NEW JERSEY

CITY           SKY/WX    TMP DP  RH WIND       PRES   REMARKS
POMONA         PTCLDY    66  64  93 CALM      29.93S
RIO GRANDE*    PTCLDY    70  61  73 NE3       29.94S
MILLVILLE      PTCLDY    65  63  93 CALM      29.93S
WRIGHTSTOWN    MOCLDY    65  63  91 VRB1      29.92S
MOUNT HOLLY    CLOUDY    68  63  84 CALM      29.93S
TRENTON        PTCLDY    69  62  78 SE3       29.93F

$$
NJZ001>014-200600-
NORTHERN NEW JERSEY

CITY           SKY/WX    TMP DP  RH WIND       PRES   REMARKS
SUSSEX         CLOUDY    66  61  84 CALM      29.95S
ANDOVER*         N/A     66  64  93 CALM      29.95F
MORRISTOWN     MOCLDY    64  61  88 CALM      29.95S
NEWARK         MOCLDY    70  65  84 S3        29.94F
TETERBORO      PTCLDY    71  63  75 CALM      29.94R
CALDWELL       MOCLDY    67  61  81 CALM      29.95S
SOMERVILLE     MOCLDY    67  61  81 CALM      29.93S
ALLAIRE*       PTCLDY    66  61  82 CALM      29.94S
TOMS RIVER*    MOCLDY    64  61  88 CALM      29.95R

$$
PAZ043-044-047-054-055-060>062-066>071-200600-
EASTERN PENNSYLVANIA

CITY           SKY/WX    TMP DP  RH WIND       PRES   REMARKS
PHILADELPHIA   CLOUDY    73  63  70 S3        29.94R
NORTH PHILA    MOCLDY    72  61  68 SE5       29.95S
BLUE BELL      MOCLDY    72  63  73 CALM      29.93S
DOYLESTOWN     MOCLDY    68  63  84 CALM      29.94S
QUAKERTOWN*    PTCLDY    68  64  88 CALM      29.96R
POTTSTOWN      MOCLDY    71  64  78 S5        29.96R
LANCASTER      CLOUDY    70  64  81 E3        29.93S
COATESVILLE    PTCLDY    66  66 100 CALM      29.96S
READING        CLOUDY    74  62  66 S3        29.93R
ALLENTOWN      CLEAR     73  63  70 S5        29.94R
MOUNT POCONO   PTCLDY    64  60  87 SE6       29.99S
HAZLETON       CLOUDY    68  63  83 CALM      30.00S
WILKES BARRE   CLOUDY    71  61  70 CALM      29.94R

$$
DEZALL-MDZ008-012-015-019-020-200600-
DELAWARE AND EASTERN MARYLAND

CITY           SKY/WX    TMP DP  RH WIND       PRES   REMARKS
WILMINGTON     PTCLDY    72  65  78 S3        29.95R
DOVER          CLEAR     69  65  87 S1        29.91S
GEORGETOWN     CLEAR     66  63  90 CALM      29.92F
EASTON         PTCLDY    68  66  93 CALM      29.97R
PATUXENT       CLEAR     73  65  75 SE8       29.91F
OCEAN CITY     CLEAR     73  66  78 E7        29.91S
WALLOPS ISLAND CLEAR     72  66  81 E7        29.92R
CAMBRIDGE      CLEAR     64  61  88 CALM      29.92S
SALISBURY      CLEAR     67  62  84 CALM      29.92S

$$
PAZ001-021-NYZ056-072-MDZ011-DCZ001-200600-
OTHER NEARBY LOCATIONS

CITY           SKY/WX    TMP DP  RH WIND       PRES   REMARKS
HARRISBURG     MOCLDY    73  67  81 CALM      29.91S
STATE COLLEGE  MOCLDY    65  64  96 CALM      29.94S FOG
WILLIAMSPORT   MOCLDY    67  62  84 CALM      29.91S
BINGHAMTON     CLEAR     66  62  87 S3        29.95S
NEW YORK CITY  PTCLDY    71  63  75 CALM      29.97S
BALTIMORE      PTCLDY    69  64  84 CALM      29.93S
WASHINGTON DC  MOCLDY    76  66  71 S6        29.94R

$$



USA.gov is the U.S. government's official web portal to all federal, state and local government web resources and services.